sat.trackr.live / text

‹ back to catalog

STARLINK-30538

NORAD 57994 · 2023-153D

PAYLOAD ACTIVE UNKNOWN

§ Identity

Operator
Country
US
Launch date
2023-10-05
Launch site
AFETR
Launch vehicle
Mass (kg)
RCS (m²)

Purposes: comms

External: N2YO · Heavens-Above · Gunter

§ Orbital elements

Epoch: 2026-09-20T03:16:03.723744Z

Period
94.27 min
Inclination
43.0052°
Eccentricity
0.0001749
Mean motion
15.27575938 rev/d
Perigee alt
481.9 km
Apogee alt
484.3 km
Semi-major
6,861.2 km
B*
2.6516e-6
RAAN
48.9861°
Arg perigee
263.7676°
Mean anomaly
96.2977°
Rev number
16,453

§ Raw data

STARLINK-305381 57994U 23153D   26263.13615421 -.00000189  00000+0  26516-5 0  99932 57994  43.0052  48.9861 0001749 263.7676  96.2977 15.27575938164535

JSON: /api/v1/satellites/57994 · /tle

For live sub-satellite position, see the globe view (requires WebGL).

§ Visibility from observer

Set your observer location to see the next 7 days of passes ≥ 10°. The values pass through the URL so the page stays shareable.

No JS? Fill the form by hand. The geolocation button needs JavaScript.